Hourly Weather Roundup
Issued by NWS Central Illinois

Home | Current Version | Previous Version | Text Only | Print | Product List | Glossary On
Versions: 1 2 3 4 5 6 7 8 9 10 11 12 13 14 15 16 17 18 19 20 21 22 23 24 25 26 27 28 29 30 31 32 33 34 35 36 37 38 39 40 41 42 43 44 45 46 47 48 49 50
000
NZUS43 KILX 270410
HWRILX

AREA WEATHER ROUNDUP
NATIONAL WEATHER SERVICE, LINCOLN IL
1000 PM CST SUN FEB 26 2017


CITY           SKY/WX    TMP DP  RH WIND       PRES   REMARKS
BLOOMINGTON    FAIR      34  23  64 SW8       30.10R WCI  27
CHAMPAIGN      FAIR      30  19  63 S9        30.11S WCI  22
DECATUR        FAIR      36  24  62 SW8       30.11R WCI  30
EFFINGHAM      CLOUDY    43  32  65 S9        30.16R
FLORA          CLOUDY    44  34  67 SW6       30.16R
GALESBURG      CLOUDY    38  32  77 S6          N/A  WCI  34
JACKSONVILLE   FAIR      37  29  74 S7        30.10R WCI  31
LACON          CLOUDY    39  26  59 SW5       30.08R
LAWRENCEVILLE  CLOUDY    46  27  47 SW15      30.17R
LITCHFIELD     CLOUDY    40  33  76 S12       30.12S WCI  32
$$


CITY           SKY/WX    TMP DP  RH WIND       PRES   REMARKS
LINCOLN        FAIR      35  26  70 SW5       30.10R WCI  31
MACOMB         FAIR      37  25  61 SW12      30.09R WCI  30
MATTOON        CLOUDY    42  29  59 SW6       30.12R
MT CARMEL AP   CLOUDY    45  32  61 W8        30.16R
OLNEY-NOBLE AP DRIZZLE   41  37  87 CALM      30.16R
PARIS          CLOUDY    38  27  62 SW10      30.14R WCI  32
PEORIA         FAIR      34  23  64 S7        30.09R WCI  28
PONTIAC        FAIR      38  25  60 S13       30.10R WCI  30
RANTOUL        FAIR      37  24  59 S7        30.10S WCI  31
SPRINGFIELD    FAIR      40  30  67 S14       30.10R WCI  32
TAYLORVILLE    FAIR      35  27  71 S9        30.12S WCI  28
$$

...REGIONAL REPORTS...


CITY           SKY/WX    TMP DP  RH WIND       PRES   REMARKS
CHICAGO O`HARE FAIR      41  27  57 SW14      30.03R WCI  33
KANKAKEE       FAIR      32  25  77 SW9       30.10R WCI  24
MOLINE         FAIR      32  28  85 SW3       30.05R
MOUNT STERLING FAIR      36  30  80 SW8       30.08R WCI  29
MOUNT VERNON   CLOUDY    41  37  86 SW6       30.16R
PITTSFIELD     MOCLDY    38  32  80 S6        30.10S WCI  34
QUINCY         FAIR      36  30  79 S9        30.08R WCI  29
ROCKFORD       FAIR      37  29  72 SW5       30.05R WCI  33
$$


CITY           SKY/WX    TMP DP  RH WIND       PRES   REMARKS
BURLINGTON     CLOUDY    40  32  73 S7        30.05R
CEDAR RAPIDS   MOCLDY    27  24  89 CALM      30.03R
DES MOINES     FAIR      32  21  64 CALM      30.03R
KIRKSVILLE     FAIR      35  31  85 S7        30.06R WCI  29
OTTUMWA        MOCLDY    36  22  56 N5        30.04R WCI  32
ST LOUIS       CLOUDY    43  33  68 S8        30.14R
$$


CITY           SKY/WX    TMP DP  RH WIND       PRES   REMARKS
TERRE HAUTE    CLOUDY    42  21  43 SW6       30.14R
EVANSVILLE     CLOUDY    48  20  32 VRB6      30.17R
INDIANAPOLIS   CLOUDY    40  16  37 S7        30.13S
LAFAYETTE      CLOUDY    37  23  56 CALM      30.12R
MADISON        FAIR      32  23  69 W3        29.99R
MILWAUKEE      FAIR      37  24  59 SW7       29.99R WCI  32
$$





USA.gov is the U.S. government's official web portal to all federal, state and local government web resources and services.